Location: Ailly
(50.0793°N, 1.9944°E)
Time: 22:10:32
(UTC+00:00)

SL-23 DEB - Pass Details

Date: 15 January 2026
Orbit: 423 x 3435 km, 51.4° (Epoch: 17 February)

Event Time Altitude Azimuth Distance (km) Brightness Sun altitude
Exits shadow 06:46:49 - 256° (WSW) 1,664 5.8 -9.1°
Reaches altitude 10° 06:47:09 10° 256° (WSW) 1,515 5.6 -9.1°
Maximum altitude 06:50:17 87° 343° (NNW) 443 3.3 -8.6°
Drops below altitude 10° 06:53:54 10° 76° (ENE) 1,750 7.3 -8.1°
Sets 06:56:27 0° 77° (ENE) 2,880 8.4 -7.7°
